GW2721 Weather Reports


time (UTC)temp
C
wind
direction
speed
KPH
gust
KPH
rain 1hr
cm
rain 24hr
cm
rain mn
cm
humidity
%
barometer
mb
20260504081518 8 237 0.0 0.0 0.00 0.00 0.00 81 1014.8
20260504060109 6 237 0.0 0.0 0.00 0.00 0.00 81 1015.2
20260504044653 6 237 0.0 0.0 0.00 0.00 0.00 74 1015.3
20260504043034 6 237 0.0 0.0 0.00 0.00 0.00 72 1015.3
20260504041628 6 237 0.0 0.0 0.00 0.00 0.00 70 1015.2
20260504040123 6 237 0.0 0.0 0.00 0.00 0.00 69 1015.3
20260504033018 7 237 0.0 0.0 0.00 0.00 0.00 66 1015.1
20260504031552 7 237 0.0 0.0 0.00 0.00 0.00 65 1015.0
20260504030032 7 237 0.0 0.0 0.00 0.00 0.00 64 1014.9
20260504024510 8 237 0.0 0.0 0.00 0.00 0.00 62 1014.8
20260504023055 8 237 0.0 0.0 0.00 0.00 0.00 61 1014.7
20260504021532 9 237 0.0 0.0 0.00 0.00 0.00 59 1014.8
20260504020158 10 237 0.0 0.0 0.00 0.00 0.00 57 1014.7
20260504014538 10 237 0.0 0.0 0.00 0.00 0.00 55 1014.6
20260504013107 11 237 0.0 0.0 0.00 0.00 0.00 52 1014.6
20260504011534 11 237 0.0 0.0 0.00 0.00 0.00 49 1014.5
20260504004652 13 237 0.0 0.0 0.00 0.00 0.00 43 1014.4
20260504001620 15 237 0.0 0.0 0.00 0.00 0.00 36 1014.0
20260504000145 16 237 0.0 0.0 0.00 0.00 0.00 31 1013.9
20260503233002 17 247 0.0 0.0 0.00 0.00 0.00 29 1013.7
20260503231536 17 252 0.0 0.0 0.00 0.00 0.00 28 1013.6
20260503230017 17 254 0.0 0.0 0.00 0.00 0.00 28 1013.5
20260503223030 18 279 0.0 1.6 0.00 0.00 0.00 28 1013.7
20260503221601 17 287 0.0 0.0 0.00 0.00 0.00 28 1013.7
20260503220030 17 263 0.0 0.0 0.00 0.00 0.00 27 1013.8
20260503214532 17 271 0.0 0.0 0.00 0.00 0.00 27 1013.9
20260503211633 18 271 0.0 0.0 0.00 0.00 0.00 27 1013.6
20260503210111 18 315 0.0 0.0 0.00 0.00 0.00 27 1014.0
20260503204557 18 313 0.0 0.0 0.00 0.00 0.00 30 1013.8
20260503201512 17 350 0.0 0.0 0.00 0.00 0.00 30 1014.3
20260503200135 17 232 0.0 1.6 0.00 0.00 0.00 31 1014.4
20260503193108 17 252 0.0 0.0 0.00 0.00 0.00 31 1014.8
20260503191549 16 259 0.0 0.0 0.00 0.00 0.00 32 1015.0
20260503190129 16 283 0.0 0.0 0.00 0.00 0.00 34 1015.2
20260503184620 16 260 0.0 0.0 0.00 0.00 0.00 32 1015.6
20260503183014 16 199 0.0 0.0 0.00 0.00 0.00 34 1015.6
20260503180028 15 304 0.0 0.0 0.00 0.00 0.00 36 1015.8
20260503173108 14 288 0.0 1.6 0.00 0.00 0.00 36 1016.0
20260503173001 14 319 0.0 1.6 0.00 0.00 0.00 34 1016.0
20260503171537 15 260 0.0 0.0 0.00 0.00 0.00 33 1016.0